Regional Weather Roundup
Issued by NWS Northern Indiana

Home | Current Version | Previous Version | Text Only | Print | Product List | Glossary On
Versions: 1 2 3 4 5 6 7 8 9 10 11 12 13 14 15 16 17 18 19 20 21 22 23 24 25 26 27 28 29 30 31 32 33 34 35 36 37 38 39 40 41 42 43 44 45 46 47 48 49 50
000
ASUS43 KIWX 100510
RWRIWX

KIWX WEATHER ROUNDUP
NATIONAL WEATHER SERVICE NORTHERN INDIANA
1200 AM EST WED FEB 10 2016

NOTE: "FAIR" INDICATES FEW OR NO CLOUDS BELOW 12,000 FEET WITH NO
SIGNIFICANT WEATHER AND/OR OBSTRUCTIONS TO VISIBILITY.

* THESE STATIONS ARE NOT UNDER NWS QUALITY CONTROL. THEY ALSO MAY NOT
  REPORT WEATHER SUCH AS PRECIPITATION OR FOG.

INZ001>027-100600-
NORTHERN INDIANA

CITY           SKY/WX    TMP DP  RH WIND       PRES   REMARKS
GARY*          FLURRIES  17   8  65 W13G18    29.95S WCI   4
VALPARAISO     LGT SNOW  15  11  83 W16       29.91S WCI  -1
MICHIGAN CITY* LGT SNOW  19  16  86 NW9G18    29.90S WCI   9
LAPORTE*       LGT SNOW  19  17  93 W9G21     29.89S VSB 1   WCI   7
KNOX*          CLOUDY    18  10  73 W16G22    29.90F WCI   3
SOUTH BEND     LGT SNOW  19  16  88 W16       29.85F FOG     WCI   4
GOSHEN         LGT SNOW  18  14  84 W15       29.83F FOG     WCI   4
MONTICELLO*    LGT SNOW  16   9  75 W12       29.93S WCI   3
LOGANSPORT*    LGT SNOW  18  10  73 W12       29.92S WCI   5
ROCHESTER*     LGT SNOW  19  10  68 W13       29.89S WCI   7
WARSAW*        FLURRIES  18  12  79 W15       29.86S WCI   3
ANGOLA*        CLOUDY    19  16  86 W9        29.78S WCI   9
FORT WAYNE     FLURRIES  19  12  74 W18       29.85S WCI   4
HUNTINGTON*    FLURRIES  16   8  73 W16       29.86F WCI   0
PERU/GRISSOM   FLURRIES  16  12  84 W15       29.88S WCI   1
MARION*        CLOUDY    15   6  67 W14       29.90S WCI   1

$$
INZ028>050-100600-
CENTRAL INDIANA

CITY           SKY/WX    TMP DP  RH WIND       PRES   REMARKS
LAFAYETTE      CLOUDY    15   9  76 W14       29.95F WCI   0
KOKOMO*        CLOUDY    16   9  73 W13       29.90S WCI   2
MUNCIE*        LGT SNOW  16  10  77 W10       29.89S WCI   4
INDIANAPOLIS   LGT SNOW  15  10  80 W10       29.93F WCI   2

$$
MIZ043>046-050>051-056>058-064>065-071>073-077>080-100600-
SOUTHWEST LOWER MICHIGAN

CITY           SKY/WX    TMP DP  RH WIND       PRES   REMARKS
BATTLE CREEK   CLOUDY    22  14  71 NW10      29.77F WCI  11
BENTON HARBOR  LGT SNOW  23  17  78 VRB7      29.84F WCI  15
COLDWATER*     LGT SNOW  22  19  89 W9        29.77S WCI  12
HILLSDALE*     CLOUDY    22  16  78 W14       29.74S WCI   9
HOLLAND        FLURRIES  21  15  78 NW9       29.82F WCI  11
GRAND RAPIDS   FLURRIES  21  14  74 NW16      29.79R WCI   7
KALAMAZOO      LGT SNOW  22  16  78 NW14      29.79S WCI   9
STURGIS*       FLURRIES  20  17  90 W8        29.79S WCI  10
THREE RIVERS*  FLURRIES  22  19  88 W10       29.80F WCI  11

$$
OHZ001>008-015>018-024>025-100600-
NORTHWEST OHIO

CITY           SKY/WX    TMP DP  RH WIND       PRES   REMARKS
DEFIANCE       CLOUDY    22  15  75 W8G18     29.81S WCI  12
FINDLAY        CLOUDY    22  15  75 W21G26    29.79R WCI   6
TOLEDO EXPRESS CLOUDY    23  18  81 W18       29.76S WCI   9
TOLEDO METCALF CLOUDY    25  18  74 W15       29.77R WCI  13
LIMA           FLURRIES  19  15  84 W17       29.81S WCI   4

$$
AND FOR LAKE MICHIGAN COASTAL AND OPEN LAKE BUOY OBSERVATIONS

STATION/POSITION TEMP    WIND        PRES    VSBY  WAVE
                 AIR SEA DIR/SP/G                  HT/PER
                 (F)     (DEG/KT/KT) (MB)    (MI)  (FT/S)
CALUMET HARBOR    15     270/  9/ 16 1013.3S
MICHIGAN CITY     19     270/ 28/ 31   N/A
BURNS HARBOR      19     300/ 20/ 23 1013.2F
SAINT JOSEPH      24     310/ 20/ 28 1011.5F

$$
&&




USA.gov is the U.S. government's official web portal to all federal, state and local government web resources and services.